Wind_Speed
28 27 27 27 26 26 27 28 29 28 28 27 28 28 29 29 30 31 32 33 33 32 32 32 32 33 34 33 34 34 34 35 35 36 36 36 37 37 37 37 37 37 37 38
29 28 28 28 27 28 28 28 29 29 28 27 28 29 29 30 30 31 31 32 32 33 32 32 33 33 33 33 33 33 34 34 35 35 35 36 36 36 36 36 36 36 36 36
30 29 30 29 28 28 28 28 29 29 29 29 29 29 29 29 30 30 30 31 31 32 31 32 32 33 33 33 33 33 33 34 34 34 35 36 36 36 36 36 35 35 34 35
31 31 31 29 28 27 27 28 28 29 29 30 29 28 28 29 29 29 29 29 30 31 31 32 32 32 32 33 33 33 33 34 34 35 36 36 36 36 36 35 35 35 35 35
31 31 31 29 28 27 27 27 28 29 29 29 29 28 27 27 28 29 29 29 29 29 30 30 31 31 31 31 32 32 33 34 35 35 35 35 35 35 35 35 35 35 35 35
30 31 30 29 27 28 28 29 27 28 28 28 28 28 27 27 27 27 28 28 28 28 29 30 30 30 30 30 31 32 32 33 34 34 34 34 35 35 35 35 34 35 35 35
29 30 30 28 27 28 29 29 28 28 27 28 28 27 27 27 27 28 28 28 28 28 29 30 30 30 30 30 31 31 32 32 32 32 33 33 33 34 34 34 34 34 34 34
28 29 28 27 28 28 28 28 28 27 27 27 27 27 28 28 28 28 28 28 28 28 28 28 29 30 30 30 30 30 31 31 31 31 31 31 31 32 32 32 32 33 34 34
29 28 27 27 28 28 28 27 27 27 27 27 27 27 28 28 28 28 27 27 27 27 27 27 28 28 29 29 29 30 30 30 30 29 30 30 30 30 30 30 31 31 31 31
27 26 27 27 27 27 27 27 26 26 26 26 27 27 27 26 26 26 26 26 26 26 26 26 27 28 28 28 28 28 28 28 29 30 30 29 29 29 29 29 29 29 29 29
25 26 26 26 26 27 27 27 26 26 26 26 26 26 25 25 24 25 25 25 25 25 25 26 26 26 26 26 26 27 27 27 28 28 28 28 28 27 27 27 28 28 28 27
25 25 26 26 26 26 26 26 26 26 26 25 25 24 24 24 24 24 24 24 24 24 25 25 24 24 24 25 25 25 25 25 25 25 25 26 25 25 25 25 26 26 25 25
26 26 26 26 25 24 24 24 25 25 24 24 24 24 24 23 24 23 23 24 24 24 24 24 23 22 23 23 24 24 24 25 25 24 24 24 24 24 23 24 24 23 23 23
27 27 27 26 24 24 24 24 24 23 23 23 24 24 24 23 23 23 23 24 24 24 24 23 22 22 23 23 24 24 25 25 24 24 23 23 23 23 23 22 22 21 21 22
26 26 25 24 23 23 24 23 23 22 22 22 23 23 23 23 23 23 24 25 24 24 23 23 23 23 23 23 24 25 25 24 23 23 23 22 22 22 22 22 20 20 20 20
22 23 23 24 23 23 23 22 23 22 22 22 22 22 22 23 24 24 24 24 24 23 23 24 23 23 24 24 24 24 23 23 22 22 21 21 21 21 20 20 19 18 18 18
21 21 21 22 22 22 22 22 22 23 23 23 23 23 23 24 24 24 24 24 24 24 24 24 24 24 24 23 23 22 22 21 20 20 20 20 19 18 18 17 17 17 16 17
21 21 21 21 21 22 21 21 21 22 23 23 23 24 24 24 24 23 23 24 24 23 24 24 23 23 22 21 20 20 20 19 19 18 18 18 17 16 16 15 15 15 15 15
20 20 20 20 20 21 21 22 21 21 21 21 22 22 22 22 22 22 23 23 23 23 23 23 22 22 21 20 20 19 18 17 17 16 15 15 14 14 14 13 13 13 13 13
19 20 20 20 20 21 21 21 21 21 21 21 21 21 21 21 22 22 21 21 21 21 21 21 21 21 21 20 19 18 17 17 16 15 14 13 13 12 12 12 12 12 11 11
19 20 20 20 20 21 21 21 21 21 21 21 22 21 21 21 21 21 21 20 20 20 20 20 20 20 20 19 18 18 17 16 15 15 14 13 13 13 12 11 11 11 10 10
19 19 20 20 21 21 21 21 21 21 22 22 22 21 21 21 20 21 20 20 20 20 20 20 20 19 19 19 18 18 18 17 16 16 15 15 14 13 12 11 11 10 10 9
19 19 19 19 19 19 20 20 20 20 20 20 21 20 20 19 19 19 19 19 19 19 19 19 19 18 18 18 18 18 18 18 17 17 16 16 15 13 13 12 11 10 10 9
18 18 18 18 18 17 17 17 18 18 18 19 19 18 18 18 18 18 18 19 19 19 18 18 18 18 18 18 18 18 18 18 17 17 17 16 14 13 13 12 11 11 10 9
16 16 16 16 16 16 15 16 16 17 17 17 17 17 16 17 17 17 18 17 17 17 17 16 17 17 17 18 17 16 16 16 16 16 15 15 14 13 13 12 11 11 10 10
15 15 15 15 15 15 14 15 15 16 16 16 17 17 17 17 16 16 16 16 16 16 15 15 15 15 15 15 15 14 14 14 14 13 14 14 14 13 12 12 11 11 11 10
14 14 14 15 15 15 15 15 15 16 16 16 16 16 16 15 15 15 15 15 14 14 14 13 13 12 12 11 11 11 11 12 12 12 12 12 12 13 13 12 12 12 11 11
Wind_Direction
273 274 274 273 272 272 272 274 277 279 280 280 278 276 273 272 272 271 272 273 273 271 269 267 268 269 269 269 270 269 269 269 270 270 270 271 271 270 271 271 270 270 271 271
272 273 272 272 273 274 274 275 277 277 279 282 280 277 275 274 273 272 273 274 273 273 272 270 270 270 270 271 271 271 270 270 271 271 271 271 270 270 271 272 271 271 271 272
271 272 272 271 274 275 275 276 277 277 279 279 280 279 277 276 276 276 276 276 274 273 272 271 271 271 271 271 272 271 271 271 271 271 272 273 272 271 271 272 272 272 272 273
271 271 271 273 274 275 274 274 276 278 278 279 279 278 278 278 278 277 278 276 274 273 272 272 272 272 273 272 272 271 271 272 272 272 273 274 274 272 271 272 272 272 273 274
270 272 272 273 275 275 275 274 276 278 278 277 277 278 278 279 278 278 278 277 275 274 273 274 274 274 274 273 273 272 273 273 273 274 274 273 273 272 272 272 272 273 273 274
270 272 273 275 276 276 276 276 278 279 278 277 277 278 279 279 280 279 279 277 276 275 274 274 275 275 274 275 275 275 276 276 275 275 274 273 272 272 271 271 272 273 274 274
268 269 271 274 276 277 277 279 279 279 280 279 278 279 279 281 281 280 280 279 278 278 277 275 275 274 275 277 276 276 277 277 277 276 276 274 273 272 272 272 272 273 272 273
268 270 272 274 275 277 278 278 278 278 279 279 279 279 279 280 281 281 280 279 279 278 278 277 275 276 277 277 277 277 277 277 277 277 277 275 275 274 274 273 274 273 272 272
269 270 272 273 274 276 277 278 277 278 277 278 279 280 280 280 280 280 279 279 279 279 279 279 278 278 278 277 277 277 277 277 278 278 278 277 276 276 275 274 275 275 273 272
270 270 271 273 275 276 276 276 277 278 279 280 280 280 280 280 279 278 278 278 279 280 281 281 281 280 279 278 277 278 277 278 279 281 280 279 279 278 277 276 276 275 275 275
269 271 272 273 275 275 273 274 276 278 280 281 280 280 280 280 279 279 279 280 280 281 283 284 283 281 281 279 278 278 279 279 281 282 282 280 280 280 279 277 276 275 275 275
270 272 273 274 275 275 274 275 277 278 279 280 280 281 281 280 279 279 279 280 281 282 283 284 283 282 281 281 280 280 280 281 282 282 282 282 281 282 281 279 277 275 275 274
271 270 271 273 275 274 274 276 276 277 278 279 280 281 282 282 280 279 280 280 280 282 284 284 283 281 281 282 282 282 283 283 282 282 282 282 283 283 283 282 278 276 275 274
271 272 272 273 273 273 275 277 277 278 278 279 280 282 282 281 281 280 281 281 281 283 283 283 281 282 282 282 283 284 284 284 283 282 282 282 282 282 282 283 281 277 276 275
271 271 273 273 272 274 276 275 275 276 278 279 281 282 281 280 279 280 281 282 282 282 281 281 282 282 283 283 284 285 285 283 282 282 282 282 282 282 282 281 281 277 276 276
270 270 271 272 273 276 276 274 274 276 279 281 281 281 281 282 282 280 281 281 280 280 280 280 280 281 282 283 284 284 284 283 282 281 281 283 284 284 282 279 278 278 277 277
271 270 271 271 271 273 276 277 278 278 280 281 282 284 285 285 284 281 280 279 278 278 279 280 280 280 281 283 283 283 283 283 282 282 283 284 284 283 281 279 277 278 278 277
274 273 273 271 272 273 275 277 278 280 280 281 284 285 287 287 285 282 281 280 279 278 278 278 279 279 279 280 280 281 281 281 280 281 284 285 285 282 280 279 277 278 280 281
277 276 277 274 273 274 276 277 279 281 282 284 285 286 287 287 286 284 283 282 280 279 277 276 276 275 275 276 276 277 278 279 280 282 282 285 285 284 282 279 278 278 280 281
280 279 278 277 275 276 278 279 280 282 284 285 287 287 287 288 288 287 286 284 281 278 276 275 274 273 272 272 271 272 274 276 278 279 279 282 283 283 281 280 280 282 282 282
282 281 280 279 278 278 279 281 282 283 284 286 287 288 289 289 288 288 287 286 283 280 277 276 275 274 271 268 267 269 271 272 273 273 275 278 279 281 280 278 280 282 282 281
283 283 282 281 280 280 280 281 283 284 285 287 288 288 288 288 288 287 287 286 284 282 278 276 274 272 270 268 267 268 268 269 269 269 270 271 272 274 273 273 274 277 280 280
284 284 285 285 284 282 282 283 284 286 287 287 287 288 287 285 286 286 285 286 285 283 280 277 272 269 268 268 267 267 266 266 267 266 267 266 268 267 265 267 268 271 276 277
285 284 284 285 286 285 285 285 285 286 288 288 288 288 287 287 287 287 288 288 287 286 282 277 274 271 269 269 269 266 264 264 264 263 263 264 263 261 261 263 264 267 271 273
285 285 286 286 287 285 285 287 288 289 289 289 289 289 289 290 291 290 289 289 289 288 284 280 277 274 271 269 268 266 263 261 260 259 257 256 255 256 258 259 261 263 265 267
282 284 286 288 288 287 288 290 292 292 291 290 289 290 292 293 293 292 292 291 290 289 286 282 279 277 274 269 265 261 257 255 254 253 252 251 251 252 253 254 255 257 259 263
284 285 287 288 289 289 290 292 291 292 292 291 290 290 291 291 292 293 294 294 292 289 286 282 279 277 273 267 261 254 249 249 250 250 250 250 250 250 251 253 254 255 257 261
Height
5592 5592 5591 5591 5592 5591 5590 5590 5590 5590 5590 5591 5589 5588 5587 5586 5585 5585 5585 5585 5585 5585 5585 5585 5585 5585 5585 5585 5585 5584 5584 5584 5584 5584 5584 5584 5583 5583 5583 5583 5583 5583 5582 5582
5585 5585 5584 5584 5584 5584 5583 5583 5582 5582 5583 5583 5581 5579 5578 5578 5577 5577 5577 5576 5576 5576 5576 5576 5576 5575 5575 5575 5575 5575 5575 5575 5574 5574 5574 5574 5574 5574 5574 5573 5573 5572 5572 5572
5577 5577 5576 5576 5579 5578 5577 5576 5575 5574 5576 5574 5573 5571 5570 5570 5569 5569 5569 5568 5567 5567 5567 5566 5566 5566 5566 5566 5566 5565 5565 5565 5565 5565 5565 5564 5564 5564 5563 5563 5563 5563 5562 5562
5568 5569 5568 5573 5572 5570 5569 5569 5568 5567 5567 5566 5565 5563 5563 5562 5561 5561 5560 5559 5559 5558 5558 5557 5557 5557 5557 5556 5556 5556 5556 5556 5556 5555 5555 5555 5554 5553 5553 5553 5553 5553 5552 5552
5561 5560 5560 5564 5564 5563 5562 5562 5561 5560 5559 5558 5557 5556 5557 5555 5553 5552 5552 5551 5550 5550 5549 5549 5548 5548 5548 5548 5547 5547 5547 5546 5546 5545 5545 5545 5544 5544 5543 5543 5543 5543 5542 5542
5553 5552 5552 5557 5557 5555 5554 5554 5555 5552 5551 5550 5548 5548 5550 5547 5545 5545 5544 5543 5542 5541 5541 5541 5540 5540 5540 5539 5539 5538 5537 5537 5536 5535 5535 5535 5534 5534 5533 5533 5533 5533 5532 5532
5546 5544 5545 5549 5549 5547 5548 5548 5546 5544 5543 5542 5541 5541 5541 5539 5538 5537 5536 5535 5534 5533 5533 5532 5532 5531 5531 5531 5530 5529 5528 5527 5526 5526 5525 5524 5524 5523 5523 5523 5523 5523 5523 5522
5539 5538 5541 5541 5540 5540 5540 5538 5537 5537 5535 5534 5533 5533 5532 5531 5530 5529 5528 5527 5526 5525 5524 5524 5523 5523 5523 5522 5521 5521 5520 5519 5518 5517 5516 5515 5514 5514 5513 5513 5512 5512 5512 5512
5533 5534 5533 5533 5532 5532 5531 5530 5530 5529 5528 5527 5526 5525 5524 5523 5522 5521 5520 5519 5518 5517 5517 5516 5515 5515 5514 5514 5513 5512 5511 5510 5509 5508 5507 5506 5505 5504 5503 5503 5503 5502 5502 5502
5525 5526 5526 5525 5525 5524 5523 5523 5522 5521 5521 5520 5519 5518 5517 5515 5515 5514 5513 5512 5511 5510 5509 5508 5507 5507 5506 5506 5505 5504 5503 5502 5501 5500 5499 5497 5496 5496 5495 5494 5494 5493 5493 5493
5518 5519 5518 5518 5517 5517 5516 5516 5515 5514 5514 5513 5512 5510 5509 5508 5507 5506 5505 5505 5504 5503 5502 5501 5500 5499 5498 5498 5497 5496 5495 5494 5493 5492 5490 5489 5488 5487 5486 5486 5484 5484 5484 5484
5512 5512 5511 5511 5511 5510 5509 5509 5508 5507 5507 5505 5504 5503 5502 5501 5500 5499 5499 5498 5497 5496 5495 5494 5493 5492 5491 5490 5490 5489 5488 5487 5485 5484 5483 5482 5481 5480 5478 5477 5476 5476 5476 5476
5504 5504 5504 5504 5503 5503 5502 5501 5501 5500 5499 5498 5497 5496 5495 5494 5493 5492 5492 5491 5490 5489 5488 5487 5486 5485 5484 5483 5483 5482 5481 5480 5478 5477 5476 5475 5474 5473 5472 5470 5469 5468 5468 5468
5497 5497 5497 5497 5496 5496 5495 5494 5494 5493 5492 5491 5490 5489 5488 5487 5486 5486 5485 5484 5483 5482 5481 5480 5479 5478 5478 5477 5476 5475 5474 5472 5471 5470 5469 5468 5467 5466 5465 5464 5463 5462 5461 5461
5490 5490 5490 5490 5489 5489 5488 5487 5487 5487 5486 5484 5483 5482 5481 5480 5479 5479 5478 5477 5476 5475 5474 5473 5473 5472 5471 5470 5469 5468 5467 5465 5464 5463 5462 5461 5460 5459 5458 5457 5456 5456 5455 5455
5483 5483 5482 5483 5483 5482 5481 5481 5480 5480 5479 5478 5477 5475 5474 5473 5472 5471 5470 5470 5469 5468 5467 5467 5466 5466 5464 5463 5462 5461 5460 5459 5458 5457 5456 5455 5454 5453 5452 5451 5450 5450 5449 5449
5477 5477 5476 5476 5476 5476 5475 5474 5474 5473 5472 5471 5470 5469 5467 5466 5465 5464 5463 5462 5462 5461 5460 5460 5459 5458 5458 5457 5456 5455 5454 5453 5452 5451 5450 5449 5448 5447 5446 5446 5445 5445 5444 5444
5471 5471 5470 5470 5470 5470 5469 5468 5467 5466 5465 5464 5463 5462 5461 5459 5458 5457 5456 5455 5454 5454 5453 5452 5452 5451 5451 5450 5449 5449 5448 5448 5447 5446 5445 5444 5443 5442 5441 5441 5440 5440 5439 5439
5465 5465 5465 5464 5464 5463 5463 5462 5461 5460 5459 5458 5456 5455 5454 5452 5451 5450 5449 5448 5447 5446 5445 5445 5444 5444 5444 5443 5443 5443 5443 5442 5442 5441 5440 5440 5439 5438 5437 5437 5436 5436 5435 5435
5460 5460 5459 5458 5458 5457 5456 5455 5454 5453 5452 5451 5450 5448 5447 5445 5444 5443 5442 5441 5440 5439 5438 5438 5437 5437 5437 5437 5437 5437 5437 5437 5437 5436 5436 5436 5435 5435 5434 5433 5433 5432 5432 5431
5455 5454 5453 5452 5452 5451 5450 5449 5448 5447 5446 5444 5443 5442 5440 5439 5437 5436 5435 5434 5433 5432 5431 5431 5431 5430 5430 5431 5431 5431 5432 5432 5432 5432 5432 5432 5432 5431 5431 5430 5430 5429 5429 5429
5450 5449 5447 5446 5445 5445 5444 5443 5442 5440 5439 5438 5436 5435 5433 5432 5431 5429 5428 5427 5426 5425 5425 5424 5424 5424 5424 5424 5425 5425 5426 5426 5426 5427 5427 5427 5427 5427 5427 5427 5427 5427 5427 5427
5444 5443 5442 5441 5440 5439 5438 5437 5435 5434 5433 5432 5430 5428 5427 5426 5425 5424 5423 5422 5420 5419 5418 5418 5417 5417 5418 5418 5419 5419 5420 5420 5421 5421 5422 5422 5423 5423 5424 5424 5424 5424 5424 5424
5439 5438 5436 5435 5434 5433 5432 5431 5430 5428 5427 5426 5424 5422 5421 5420 5419 5418 5417 5416 5415 5413 5412 5412 5412 5411 5412 5412 5412 5413 5414 5414 5415 5416 5417 5417 5418 5419 5420 5420 5420 5421 5421 5421
5434 5432 5431 5430 5429 5428 5427 5426 5424 5423 5422 5420 5419 5418 5416 5415 5414 5413 5412 5410 5409 5408 5407 5406 5406 5406 5406 5406 5406 5407 5408 5408 5409 5410 5411 5412 5414 5415 5415 5416 5417 5417 5418 5418
5429 5428 5427 5426 5425 5424 5423 5421 5420 5419 5417 5416 5414 5413 5412 5410 5409 5408 5407 5406 5405 5403 5402 5402 5401 5401 5400 5400 5401 5401 5402 5403 5404 5406 5407 5408 5409 5410 5411 5412 5413 5414 5414 5415
5425 5424 5423 5422 5420 5419 5418 5417 5416 5414 5413 5411 5410 5409 5407 5406 5405 5404 5403 5402 5401 5399 5398 5397 5397 5396 5396 5396 5397 5397 5398 5399 5401 5402 5403 5404 5405 5406 5407 5408 5409 5410 5411 5411